ICE30 BIRK-BIAR

Flight info

Callsign ICE30
Flight time 0h 28m
Altitude 19000
Route GILTU
Aircraft B38M/M-SDE1FGHILORVWXY/HB1

Departure

Time 2026-05-07 19:12
Airport Reykjavík Domestic Airport (BIRK)

Arrival

Time 2026-05-07 19:40
Airport Akureyri International Airport (BIAR)
Time Latitude Longitude Altitude Speed Heading
2026-05-07 18:53 64.13179 -21.94388 32 ft 0 kts 190°
2026-05-07 19:07 64.13175 -21.94389 32 ft 4 kts 190°
2026-05-07 19:07 64.13140 -21.94309 32 ft 13 kts 108°
2026-05-07 19:08 64.13140 -21.94149 32 ft 20 kts 83°
2026-05-07 19:08 64.13125 -21.93811 38 ft 20 kts 149°
2026-05-07 19:08 64.12950 -21.93766 35 ft 32 kts 175°
2026-05-07 19:09 64.12686 -21.93711 37 ft 43 kts 174°
2026-05-07 19:09 64.12417 -21.93660 38 ft 27 kts 175°
2026-05-07 19:09 64.12307 -21.93619 37 ft 1 kts 253°
2026-05-07 19:09 64.12309 -21.93624 36 ft 1 kts 298°
2026-05-07 19:10 64.12358 -21.93661 35 ft 3 kts 360°
2026-05-07 19:11 64.12493 -21.93680 38 ft 62 kts 355°
2026-05-07 19:11 64.13221 -21.93804 46 ft 145 kts 357°
2026-05-07 19:12 64.14356 -21.94048 738 ft 172 kts 353°
2026-05-07 19:12 64.15498 -21.93917 2147 ft 171 kts 20°
2026-05-07 19:12 64.16373 -21.91880 2954 ft 200 kts 65°
2026-05-07 19:12 64.16474 -21.88467 3753 ft 228 kts 87°
2026-05-07 19:13 64.16794 -21.84949 4843 ft 231 kts 57°
2026-05-07 19:13 64.17806 -21.81951 5786 ft 246 kts 48°
2026-05-07 19:13 64.18872 -21.78803 6923 ft 251 kts 49°
2026-05-07 19:13 64.19956 -21.75613 8066 ft 257 kts 48°
2026-05-07 19:14 64.21075 -21.72356 9192 ft 262 kts 48°
2026-05-07 19:14 64.22216 -21.69045 10301 ft 267 kts 49°
2026-05-07 19:14 64.23405 -21.65611 11039 ft 283 kts 49°
2026-05-07 19:14 64.24681 -21.61941 11593 ft 304 kts 49°
2026-05-07 19:15 64.26027 -21.58070 12149 ft 322 kts 49°
2026-05-07 19:15 64.27455 -21.53958 12847 ft 335 kts 49°
2026-05-07 19:15 64.28914 -21.49757 13785 ft 339 kts 49°
2026-05-07 19:15 64.30397 -21.45477 14603 ft 345 kts 49°
2026-05-07 19:16 64.31903 -21.41124 15410 ft 349 kts 49°
2026-05-07 19:16 64.33419 -21.36730 16211 ft 353 kts 49°
2026-05-07 19:16 64.34963 -21.32247 16986 ft 358 kts 49°
2026-05-07 19:16 64.36522 -21.27714 17780 ft 362 kts 49°
2026-05-07 19:17 64.38094 -21.23132 18520 ft 367 kts 49°
2026-05-07 19:17 64.39690 -21.18472 19044 ft 374 kts 49°
2026-05-07 19:17 64.41307 -21.13739 19163 ft 378 kts 49°
2026-05-07 19:17 64.42977 -21.08844 19166 ft 395 kts 49°
2026-05-07 19:18 64.44703 -21.03768 19166 ft 408 kts 49°
2026-05-07 19:18 64.46472 -20.98557 19178 ft 413 kts 49°
2026-05-07 19:18 64.48224 -20.93382 19202 ft 414 kts 49°
2026-05-07 19:18 64.50003 -20.88116 19211 ft 414 kts 49°
2026-05-07 19:19 64.51782 -20.82837 19220 ft 414 kts 49°
2026-05-07 19:19 64.53555 -20.77566 19222 ft 414 kts 49°
2026-05-07 19:19 64.55320 -20.72305 19232 ft 414 kts 49°
2026-05-07 19:19 64.57093 -20.67006 19232 ft 414 kts 49°
2026-05-07 19:20 64.58860 -20.61713 19217 ft 414 kts 49°
2026-05-07 19:20 64.60626 -20.56411 19229 ft 414 kts 49°
2026-05-07 19:20 64.62384 -20.51120 19228 ft 414 kts 50°
2026-05-07 19:20 64.64144 -20.45811 19232 ft 413 kts 50°
2026-05-07 19:21 64.65904 -20.40489 19229 ft 413 kts 50°
2026-05-07 19:21 64.67636 -20.35240 19230 ft 413 kts 50°
2026-05-07 19:21 64.69388 -20.29915 19232 ft 413 kts 50°
2026-05-07 19:21 64.71140 -20.24582 19233 ft 413 kts 50°
2026-05-07 19:22 64.72891 -20.19238 19231 ft 413 kts 50°
2026-05-07 19:22 64.74632 -20.13909 19230 ft 413 kts 50°
2026-05-07 19:22 64.76379 -20.08550 19232 ft 413 kts 50°
2026-05-07 19:22 64.78122 -20.03191 19236 ft 413 kts 50°
2026-05-07 19:23 64.79862 -19.97830 19233 ft 413 kts 50°
2026-05-07 19:23 64.81601 -19.92455 19231 ft 413 kts 50°
2026-05-07 19:23 64.83339 -19.87074 19233 ft 413 kts 50°
2026-05-07 19:23 64.85069 -19.81704 19233 ft 413 kts 50°
2026-05-07 19:24 64.86799 -19.76320 19234 ft 413 kts 50°
2026-05-07 19:24 64.88531 -19.70915 19234 ft 413 kts 50°
2026-05-07 19:24 64.90252 -19.65534 19233 ft 413 kts 50°
2026-05-07 19:24 64.91984 -19.60107 19231 ft 413 kts 50°
2026-05-07 19:25 64.93703 -19.54703 18906 ft 407 kts 51°
2026-05-07 19:25 64.95413 -19.49316 17757 ft 416 kts 51°
2026-05-07 19:25 64.97132 -19.43891 17042 ft 410 kts 51°
2026-05-07 19:25 64.98847 -19.38462 16385 ft 404 kts 51°
2026-05-07 19:26 65.00494 -19.33237 15748 ft 398 kts 51°
2026-05-07 19:26 65.02134 -19.28022 15138 ft 393 kts 51°
2026-05-07 19:26 65.03752 -19.22864 14564 ft 387 kts 51°
2026-05-07 19:26 65.05345 -19.17775 14009 ft 382 kts 51°
2026-05-07 19:27 65.06922 -19.12725 13401 ft 378 kts 51°
2026-05-07 19:27 65.08466 -19.07769 12841 ft 372 kts 52°
2026-05-07 19:27 65.09982 -19.02895 12343 ft 366 kts 52°
2026-05-07 19:27 65.11485 -18.98050 11952 ft 358 kts 52°
2026-05-07 19:28 65.12940 -18.93351 11762 ft 345 kts 52°
2026-05-07 19:28 65.14332 -18.88843 11578 ft 333 kts 52°
2026-05-07 19:28 65.15683 -18.84463 11408 ft 322 kts 52°
2026-05-07 19:28 65.16985 -18.80232 11243 ft 312 kts 52°
2026-05-07 19:29 65.18247 -18.76122 11086 ft 302 kts 52°
2026-05-07 19:29 65.19464 -18.72154 10944 ft 292 kts 52°
2026-05-07 19:29 65.20641 -18.68309 10803 ft 282 kts 52°
2026-05-07 19:29 65.21775 -18.64604 10668 ft 273 kts 52°
2026-05-07 19:30 65.22881 -18.60983 10537 ft 264 kts 52°
2026-05-07 19:30 65.23944 -18.57500 10408 ft 255 kts 52°
2026-05-07 19:30 65.24968 -18.54138 10261 ft 247 kts 52°
2026-05-07 19:30 65.25983 -18.50799 9984 ft 251 kts 52°
2026-05-07 19:31 65.27017 -18.47394 9688 ft 256 kts 52°
2026-05-07 19:31 65.28067 -18.43931 9393 ft 257 kts 52°
2026-05-07 19:31 65.29102 -18.40512 9124 ft 258 kts 52°
2026-05-07 19:31 65.30155 -18.37031 8844 ft 258 kts 52°
2026-05-07 19:32 65.31149 -18.33887 8593 ft 258 kts 50°
2026-05-07 19:32 65.32184 -18.30685 8317 ft 256 kts 50°
2026-05-07 19:32 65.33264 -18.27336 8045 ft 252 kts 50°
2026-05-07 19:32 65.34327 -18.24031 7791 ft 249 kts 50°
2026-05-07 19:33 65.35378 -18.20761 7528 ft 246 kts 51°
2026-05-07 19:33 65.36418 -18.17520 7256 ft 244 kts 51°
2026-05-07 19:33 65.37448 -18.14304 7004 ft 242 kts 50°
2026-05-07 19:33 65.38470 -18.11107 6664 ft 242 kts 51°
2026-05-07 19:34 65.39549 -18.07972 6151 ft 247 kts 40°
2026-05-07 19:34 65.41068 -18.05920 5399 ft 260 kts 15°
2026-05-07 19:34 65.42898 -18.05566 4836 ft 267 kts 358°
2026-05-07 19:34 65.44709 -18.05745 4807 ft 254 kts 358°
2026-05-07 19:35 65.46424 -18.05887 4809 ft 240 kts 358°
2026-05-07 19:35 65.48041 -18.06013 4809 ft 226 kts 359°
2026-05-07 19:35 65.49554 -18.06130 4822 ft 212 kts 359°
2026-05-07 19:35 65.50943 -18.06235 4839 ft 186 kts 359°
2026-05-07 19:36 65.52131 -18.06325 4715 ft 159 kts 359°
2026-05-07 19:36 65.53184 -18.06404 4352 ft 145 kts 359°
2026-05-07 19:36 65.54159 -18.06478 3958 ft 136 kts 359°
2026-05-07 19:36 65.55080 -18.06547 3602 ft 128 kts 359°
2026-05-07 19:37 65.55962 -18.06615 3279 ft 126 kts 359°
2026-05-07 19:37 65.56837 -18.06680 2928 ft 126 kts 358°
2026-05-07 19:37 65.57708 -18.06745 2546 ft 125 kts 358°
2026-05-07 19:37 65.58579 -18.06811 2177 ft 125 kts 359°
2026-05-07 19:38 65.59445 -18.06877 1835 ft 124 kts 358°
2026-05-07 19:38 65.60292 -18.06900 1550 ft 123 kts
2026-05-07 19:38 65.61146 -18.06693 1258 ft 127 kts
2026-05-07 19:38 65.62013 -18.06534 989 ft 121 kts 360°
2026-05-07 19:39 65.62830 -18.06639 680 ft 117 kts 354°
2026-05-07 19:39 65.63637 -18.06820 395 ft 117 kts 354°
2026-05-07 19:39 65.64442 -18.06964 96 ft 116 kts 355°
2026-05-07 19:39 65.65193 -18.07110 24 ft 98 kts 355°
2026-05-07 19:40 65.65619 -18.07186 22 ft 35 kts 355°
2026-05-07 19:40 65.65805 -18.07205 23 ft 26 kts
2026-05-07 19:40 65.65897 -18.07200 22 ft 16 kts 335°
2026-05-07 19:40 65.65910 -18.07236 25 ft 0 kts 266°
2026-05-07 19:41 65.65905 -18.07240 25 ft 1 kts 201°
2026-05-07 19:41 65.65854 -18.07239 24 ft 14 kts 176°
2026-05-07 19:41 65.65711 -18.07212 22 ft 23 kts 175°
2026-05-07 19:41 65.65524 -18.07171 22 ft 14 kts 174°
2026-05-07 19:42 65.65478 -18.07333 25 ft 12 kts 264°
2026-05-07 19:42 65.65478 -18.07348 23 ft 0 kts 265°
2026-05-07 19:42 65.65478 -18.07349 23 ft 0 kts 274°
2026-05-07 19:42 65.65488 -18.07371 23 ft 2 kts 324°
2026-05-07 19:43 65.65499 -18.07403 26 ft 3 kts 281°
2026-05-07 19:43 65.65497 -18.07456 24 ft 5 kts 257°
2026-05-07 19:43 65.65492 -18.07470 24 ft 0 kts 222°